QPF
0.00 0.00 0.00 0.00 0.00 0.00 0.00 0.00 0.00 0.00 0.00 0.00 0.00 0.00 0.00 0.00 0.00 0.00 0.00 0.00 0.00 0.00 0.00 0.00 0.00 0.00 0.00 0.00 0.00 0.00 0.00 0.00 0.00 0.00 0.00 0.00 0.00 0.00 0.00 0.00 0.00 0.00 0.00 0.00
0.00 0.00 0.00 0.00 0.00 0.00 0.00 0.00 0.00 0.00 0.00 0.00 0.00 0.00 0.00 0.00 0.00 0.00 0.00 0.00 0.00 0.00 0.00 0.00 0.00 0.00 0.00 0.00 0.00 0.00 0.00 0.00 0.00 0.00 0.00 0.00 0.00 0.00 0.00 0.00 0.00 0.00 0.00 0.00
0.00 0.00 0.00 0.00 0.00 0.00 0.00 0.00 0.00 0.00 0.00 0.00 0.00 0.00 0.00 0.00 0.00 0.00 0.00 0.00 0.00 0.00 0.00 0.00 0.00 0.00 0.00 0.00 0.00 0.00 0.00 0.00 0.00 0.00 0.00 0.00 0.00 0.00 0.00 0.00 0.00 0.00 0.00 0.00
0.00 0.00 0.00 0.00 0.00 0.00 0.00 0.00 0.00 0.00 0.00 0.00 0.00 0.00 0.00 0.00 0.00 0.00 0.00 0.00 0.00 0.00 0.00 0.00 0.00 0.00 0.00 0.00 0.00 0.00 0.00 0.00 0.00 0.00 0.00 0.00 0.00 0.00 0.00 0.00 0.00 0.00 0.00 0.00
0.00 0.00 0.00 0.00 0.00 0.00 0.00 0.00 0.00 0.00 0.00 0.00 0.00 0.00 0.00 0.00 0.00 0.00 0.00 0.00 0.00 0.00 0.00 0.00 0.00 0.00 0.00 0.00 0.00 0.00 0.00 0.00 0.00 0.00 0.00 0.00 0.00 0.00 0.00 0.00 0.00 0.00 0.00 0.00
0.00 0.00 0.00 0.00 0.00 0.00 0.00 0.00 0.00 0.00 0.00 0.00 0.00 0.00 0.00 0.00 0.00 0.00 0.00 0.00 0.00 0.00 0.00 0.00 0.00 0.00 0.00 0.00 0.00 0.00 0.00 0.00 0.00 0.00 0.00 0.00 0.00 0.00 0.00 0.00 0.00 0.00 0.00 0.00
0.00 0.00 0.00 0.00 0.00 0.00 0.00 0.00 0.00 0.00 0.00 0.00 0.00 0.00 0.00 0.00 0.00 0.00 0.00 0.00 0.00 0.00 0.00 0.00 0.00 0.00 0.00 0.00 0.00 0.00 0.00 0.00 0.00 0.00 0.00 0.00 0.00 0.00 0.00 0.00 0.00 0.00 0.00 0.00
0.00 0.00 0.00 0.00 0.00 0.00 0.00 0.00 0.00 0.00 0.00 0.00 0.00 0.00 0.00 0.00 0.00 0.00 0.00 0.00 0.00 0.00 0.00 0.00 0.00 0.00 0.00 0.00 0.00 0.00 0.00 0.00 0.00 0.00 0.00 0.00 0.00 0.00 0.00 0.00 0.00 0.00 0.00 0.00
0.00 0.00 0.00 0.00 0.00 0.00 0.00 0.00 0.00 0.00 0.00 0.00 0.00 0.00 0.00 0.00 0.00 0.00 0.00 0.00 0.00 0.00 0.00 0.00 0.00 0.00 0.00 0.00 0.00 0.00 0.00 0.00 0.00 0.00 0.00 0.00 0.00 0.00 0.00 0.00 0.00 0.00 0.00 0.00
0.00 0.00 0.00 0.00 0.00 0.00 0.00 0.00 0.00 0.00 0.00 0.00 0.00 0.00 0.00 0.00 0.00 0.00 0.00 0.00 0.00 0.00 0.00 0.00 0.00 0.00 0.00 0.00 0.00 0.00 0.00 0.00 0.00 0.00 0.00 0.00 0.00 0.00 0.00 0.00 0.00 0.00 0.00 0.00
0.00 0.00 0.00 0.00 0.00 0.00 0.00 0.00 0.00 0.00 0.00 0.00 0.00 0.00 0.00 0.00 0.00 0.00 0.00 0.00 0.00 0.00 0.00 0.00 0.00 0.00 0.00 0.00 0.00 0.00 0.00 0.00 0.00 0.00 0.00 0.00 0.00 0.00 0.00 0.00 0.00 0.00 0.00 0.00
0.00 0.00 0.00 0.00 0.00 0.00 0.00 0.00 0.00 0.00 0.00 0.00 0.00 0.00 0.00 0.00 0.00 0.00 0.00 0.00 0.00 0.00 0.00 0.00 0.00 0.00 0.00 0.00 0.00 0.00 0.00 0.00 0.00 0.00 0.00 0.00 0.00 0.00 0.00 0.00 0.00 0.00 0.00 0.00
0.00 0.00 0.00 0.00 0.00 0.00 0.00 0.00 0.00 0.00 0.00 0.00 0.00 0.00 0.00 0.00 0.00 0.00 0.00 0.00 0.00 0.00 0.00 0.00 0.00 0.00 0.00 0.00 0.00 0.00 0.00 0.00 0.00 0.00 0.00 0.00 0.00 0.00 0.00 0.00 0.00 0.00 0.00 0.00
0.00 0.00 0.00 0.00 0.00 0.00 0.00 0.00 0.00 0.00 0.00 0.00 0.00 0.00 0.00 0.00 0.00 0.00 0.00 0.00 0.00 0.00 0.00 0.00 0.00 0.00 0.00 0.00 0.00 0.00 0.00 0.00 0.00 0.00 0.00 0.00 0.00 0.00 0.00 0.00 0.00 0.00 0.00 0.00
0.00 0.00 0.00 0.00 0.00 0.00 0.00 0.00 0.00 0.00 0.00 0.00 0.00 0.00 0.00 0.00 0.00 0.00 0.00 0.00 0.00 0.00 0.00 0.00 0.00 0.00 0.00 0.00 0.00 0.00 0.00 0.00 0.00 0.00 0.00 0.00 0.00 0.00 0.00 0.00 0.00 0.00 0.00 0.00
0.00 0.00 0.00 0.00 0.00 0.00 0.00 0.00 0.00 0.00 0.00 0.00 0.00 0.00 0.00 0.00 0.00 0.00 0.00 0.00 0.00 0.00 0.00 0.00 0.00 0.00 0.00 0.00 0.00 0.00 0.00 0.00 0.00 0.00 0.00 0.00 0.00 0.00 0.00 0.00 0.00 0.00 0.00 0.00
0.00 0.00 0.00 0.00 0.00 0.00 0.00 0.00 0.00 0.00 0.00 0.00 0.00 0.00 0.00 0.00 0.00 0.00 0.00 0.00 0.00 0.00 0.00 0.00 0.00 0.00 0.00 0.00 0.00 0.00 0.00 0.00 0.00 0.00 0.00 0.00 0.00 0.00 0.00 0.00 0.00 0.00 0.00 0.00
0.00 0.00 0.00 0.00 0.00 0.00 0.00 0.00 0.00 0.00 0.00 0.00 0.00 0.00 0.00 0.00 0.00 0.00 0.00 0.00 0.00 0.00 0.00 0.00 0.00 0.00 0.00 0.00 0.00 0.00 0.00 0.00 0.00 0.00 0.00 0.00 0.00 0.00 0.00 0.00 0.00 0.00 0.00 0.00
0.00 0.00 0.00 0.00 0.00 0.00 0.00 0.00 0.00 0.00 0.00 0.00 0.00 0.00 0.00 0.00 0.00 0.00 0.00 0.00 0.00 0.00 0.00 0.00 0.00 0.00 0.00 0.00 0.00 0.00 0.00 0.00 0.00 0.00 0.00 0.00 0.00 0.00 0.00 0.00 0.00 0.00 0.00 0.00
0.00 0.00 0.00 0.00 0.00 0.00 0.00 0.00 0.00 0.00 0.00 0.00 0.00 0.00 0.00 0.00 0.00 0.00 0.00 0.00 0.00 0.00 0.00 0.00 0.00 0.00 0.00 0.00 0.00 0.00 0.00 0.00 0.00 0.00 0.00 0.00 0.00 0.00 0.00 0.00 0.00 0.00 0.00 0.00
0.00 0.00 0.00 0.00 0.00 0.00 0.00 0.00 0.00 0.00 0.00 0.00 0.00 0.00 0.00 0.00 0.00 0.00 0.00 0.00 0.00 0.00 0.00 0.00 0.00 0.00 0.00 0.00 0.00 0.00 0.00 0.00 0.00 0.00 0.00 0.00 0.00 0.00 0.00 0.00 0.00 0.00 0.00 0.00
0.00 0.01 0.00 0.00 0.00 0.00 0.00 0.00 0.00 0.00 0.00 0.00 0.00 0.00 0.00 0.00 0.00 0.00 0.00 0.00 0.00 0.00 0.00 0.00 0.00 0.00 0.00 0.00 0.00 0.00 0.00 0.00 0.00 0.00 0.00 0.00 0.00 0.00 0.00 0.00 0.00 0.00 0.00 0.00
0.01 0.03 0.01 0.00 0.00 0.00 0.00 0.00 0.00 0.00 0.00 0.00 0.00 0.00 0.00 0.00 0.00 0.00 0.00 0.00 0.00 0.00 0.00 0.00 0.00 0.00 0.00 0.00 0.00 0.00 0.00 0.00 0.00 0.00 0.00 0.00 0.00 0.00 0.00 0.00 0.00 0.00 0.00 0.00
0.00 0.02 0.02 0.01 0.00 0.00 0.00 0.01 0.00 0.00 0.00 0.00 0.00 0.00 0.00 0.00 0.00 0.00 0.00 0.00 0.00 0.00 0.00 0.00 0.00 0.00 0.00 0.00 0.00 0.00 0.00 0.00 0.00 0.00 0.00 0.00 0.00 0.00 0.00 0.00 0.00 0.00 0.00 0.00
0.00 0.02 0.01 0.02 0.00 0.01 0.00 0.02 0.03 0.03 0.01 0.00 0.00 0.00 0.00 0.00 0.00 0.00 0.00 0.00 0.00 0.00 0.00 0.00 0.00 0.00 0.00 0.00 0.00 0.00 0.00 0.00 0.00 0.00 0.00 0.00 0.00 0.00 0.00 0.00 0.00 0.00 0.00 0.00
0.00 0.01 0.01 0.01 0.01 0.01 0.00 0.01 0.04 0.08 0.09 0.07 0.04 0.01 0.00 0.00 0.00 0.00 0.00 0.00 0.00 0.00 0.00 0.00 0.00 0.00 0.00 0.00 0.00 0.00 0.00 0.00 0.00 0.00 0.00 0.00 0.00 0.00 0.00 0.00 0.00 0.01 0.07 0.13
MSLP
1005.94 1006.67 1006.01 1006.51 1006.44 1006.49 1006.41 1005.91 1005.23 1004.52 1003.87 1004.19 1004.53 1004.83 1004.83 1005.40 1006.08 1006.58 1007.11 1007.89 1008.54 1008.76 1008.90 1009.68 1010.20 1010.90 1011.53 1012.15 1012.80 1013.35 1013.94 1014.40 1015.06 1015.60 1016.10 1016.45 1016.68 1016.80 1016.88 1016.77 1016.61 1016.81 1017.04 1017.31
1005.98 1005.02 1005.71 1006.18 1006.27 1006.21 1006.18 1005.88 1005.20 1004.75 1004.11 1004.30 1004.39 1004.75 1004.73 1005.03 1004.69 1004.88 1005.85 1007.05 1007.28 1007.89 1008.78 1009.14 1009.64 1010.29 1010.86 1011.28 1011.72 1012.47 1012.91 1013.58 1014.17 1014.69 1015.08 1015.40 1015.90 1016.16 1016.21 1016.18 1016.28 1016.44 1016.72 1016.98
1003.85 1003.96 1004.87 1005.41 1005.57 1005.84 1005.63 1005.28 1005.23 1005.03 1004.51 1004.39 1004.76 1004.89 1005.07 1005.02 1005.10 1005.68 1005.86 1005.81 1006.84 1007.23 1007.57 1008.14 1008.69 1009.21 1009.77 1010.44 1010.90 1011.33 1011.83 1012.54 1013.31 1013.93 1014.65 1015.18 1015.58 1015.93 1016.24 1016.33 1016.34 1016.30 1016.35 1016.57
1003.70 1003.41 1003.72 1004.29 1004.57 1004.74 1004.99 1004.60 1005.06 1005.33 1005.52 1005.56 1005.14 1005.41 1005.17 1004.78 1004.81 1004.79 1005.08 1005.41 1005.48 1006.13 1006.71 1007.41 1007.98 1008.38 1008.61 1009.04 1009.96 1010.60 1011.43 1012.03 1012.61 1013.28 1013.92 1014.40 1014.69 1015.20 1015.46 1015.69 1015.83 1015.91 1015.96 1016.24
1001.72 1002.02 1002.80 1003.08 1002.83 1003.96 1004.03 1004.27 1004.89 1005.47 1005.99 1006.04 1005.65 1006.03 1004.49 1004.42 1004.66 1004.26 1004.01 1004.04 1004.24 1004.73 1005.38 1005.93 1006.61 1006.90 1007.27 1008.16 1008.94 1009.65 1010.46 1011.23 1011.77 1012.30 1012.73 1013.44 1013.97 1014.31 1014.70 1015.16 1015.44 1015.63 1015.79 1015.91
1001.20 1001.10 1001.57 1001.53 1002.37 1002.98 1003.70 1004.56 1005.59 1006.33 1006.68 1006.28 1005.60 1005.65 1004.23 1003.79 1002.86 1002.91 1003.08 1003.19 1003.21 1003.84 1004.33 1004.73 1005.14 1005.98 1006.85 1007.68 1008.45 1009.06 1009.70 1010.18 1010.85 1011.50 1012.02 1012.64 1013.21 1013.79 1014.38 1014.82 1015.03 1015.31 1015.64 1015.77
1001.08 1000.92 1000.60 1000.65 1001.98 1002.75 1003.53 1005.09 1006.84 1007.56 1007.26 1004.96 1004.53 1004.94 1002.45 1001.42 1000.86 1000.81 1001.14 1001.35 1001.65 1002.40 1003.34 1003.80 1004.31 1005.11 1005.80 1006.50 1007.13 1008.00 1008.83 1009.50 1010.06 1010.71 1011.25 1011.69 1012.23 1012.91 1013.37 1013.82 1014.20 1014.75 1015.20 1015.49
1000.91 1000.87 1000.09 1000.00 1000.14 1001.43 1002.94 1004.50 1006.09 1006.67 1006.54 1005.55 1004.87 1002.69 1000.67 1000.08 999.86 999.77 999.70 999.61 1000.67 1001.61 1001.96 1002.42 1002.85 1003.59 1004.29 1004.96 1005.84 1006.96 1007.78 1008.41 1009.02 1009.71 1010.37 1010.90 1011.48 1012.05 1012.53 1013.03 1013.42 1013.97 1014.40 1014.67
1000.88 1000.26 998.79 998.75 999.31 1000.37 1002.56 1003.39 1004.15 1005.81 1006.34 1005.72 1003.94 1001.64 1000.25 999.45 999.33 999.15 998.90 999.32 999.57 1000.04 1000.58 1000.89 1001.39 1002.09 1002.97 1003.72 1004.45 1005.38 1006.32 1007.21 1008.08 1008.63 1009.31 1010.03 1010.62 1011.24 1011.82 1012.30 1012.71 1013.19 1013.71 1014.11
1000.62 1000.52 999.08 998.57 999.17 999.81 1000.33 1001.97 1004.11 1005.28 1006.03 1005.60 1003.47 1001.82 999.79 999.17 998.77 998.57 998.59 998.43 998.26 998.77 999.28 999.65 1000.17 1000.78 1001.52 1002.27 1002.90 1004.11 1005.10 1005.82 1006.45 1007.27 1008.02 1008.79 1009.53 1010.17 1010.77 1011.35 1011.95 1012.46 1013.00 1013.50
1002.04 1001.38 1000.23 999.08 998.55 998.62 1000.15 1000.99 1002.31 1003.38 1004.32 1004.09 1003.46 1000.38 998.54 998.17 997.62 997.29 997.16 997.14 997.20 997.56 997.80 998.03 998.41 999.08 1000.07 1001.18 1002.23 1002.76 1003.85 1004.75 1005.61 1006.41 1007.12 1007.88 1008.62 1009.43 1010.06 1010.54 1010.91 1011.51 1012.21 1012.75
1004.15 1003.34 1001.86 1000.05 998.77 998.39 998.78 999.75 1000.95 1002.11 1003.01 1002.73 1002.13 998.99 997.29 996.49 996.25 996.56 996.44 996.33 996.28 996.54 996.65 997.00 997.28 997.91 999.15 999.97 1000.81 1001.62 1002.58 1003.60 1004.22 1005.04 1005.98 1006.60 1007.44 1008.27 1009.04 1009.56 1010.05 1010.77 1011.32 1011.96
1005.33 1004.85 1003.61 1001.63 1000.06 999.00 999.20 999.48 999.75 1000.15 1000.84 1000.53 1000.72 997.90 996.93 996.47 996.73 996.48 996.55 996.07 996.00 995.90 996.31 996.42 996.93 997.43 997.97 998.85 999.79 1000.54 1001.34 1001.89 1003.00 1004.09 1004.86 1005.73 1006.45 1007.26 1007.93 1008.43 1009.02 1009.76 1010.39 1010.96
1006.40 1006.20 1005.40 1003.99 1002.97 1002.18 1000.84 999.57 999.21 999.23 999.33 999.28 997.84 997.93 997.21 996.97 996.73 996.43 996.13 995.88 995.56 995.64 995.73 995.94 996.24 996.44 996.81 997.46 998.36 999.26 1000.07 1000.87 1001.99 1002.90 1003.72 1004.38 1005.02 1005.59 1006.21 1007.01 1007.86 1008.56 1009.16 1009.91
1007.78 1007.64 1006.72 1005.63 1003.98 1002.95 1001.62 1000.34 999.44 998.82 998.15 997.34 997.76 997.05 997.28 997.00 996.41 996.04 995.26 995.55 995.87 995.70 995.51 995.51 995.42 995.53 995.99 996.63 997.26 998.08 998.88 1000.03 1001.04 1001.97 1002.68 1003.04 1003.89 1004.57 1005.25 1005.99 1006.67 1007.40 1008.03 1008.50
1009.07 1008.65 1007.78 1006.48 1004.59 1002.70 1001.39 999.98 999.00 998.27 997.90 997.12 996.65 996.01 995.47 995.36 995.24 995.41 995.12 995.08 995.18 995.21 994.81 994.78 994.81 995.06 995.36 995.69 996.29 996.90 997.72 998.54 999.58 1000.33 1000.78 1001.77 1002.87 1003.60 1004.19 1004.87 1005.52 1006.27 1006.76 1007.38
1010.34 1009.44 1008.50 1006.85 1005.22 1003.57 1000.33 998.48 997.74 997.18 996.60 996.16 995.43 995.54 995.29 994.56 994.51 994.76 994.50 994.52 994.75 994.43 994.18 994.14 994.08 994.19 994.37 994.75 995.09 995.95 996.47 997.43 998.39 998.84 999.44 1000.44 1001.33 1002.13 1002.77 1003.60 1004.32 1004.79 1005.39 1006.24
1010.35 1009.98 1008.95 1007.50 1005.64 1003.06 999.46 997.35 996.60 995.87 995.42 994.92 994.84 994.44 994.17 993.75 993.01 992.83 993.09 993.44 993.63 993.74 993.74 993.40 993.14 993.15 993.30 993.61 994.50 994.72 995.79 996.67 997.30 997.92 998.71 999.46 1000.12 1000.68 1001.77 1002.70 1003.11 1003.53 1004.23 1004.85
1009.36 1009.70 1008.98 1007.62 1005.49 1001.31 999.26 997.89 997.37 997.00 995.20 994.28 994.26 994.04 993.45 992.88 992.50 992.04 992.07 992.48 992.30 992.29 992.39 992.15 991.75 991.81 992.23 992.77 993.38 994.34 995.27 996.00 996.74 997.27 997.88 998.46 999.01 999.65 1000.46 1001.17 1001.53 1002.25 1003.25 1003.73
1008.64 1008.53 1008.40 1007.02 1004.84 1001.49 998.68 998.07 997.37 997.30 996.32 994.70 994.34 993.19 992.69 992.91 992.92 992.11 991.16 991.42 991.54 991.50 991.73 991.59 991.66 991.79 992.09 992.29 992.92 993.88 994.53 995.09 995.66 996.20 996.21 996.95 997.64 998.43 999.11 999.52 1000.14 1000.92 1001.84 1002.73
1008.51 1008.41 1007.40 1006.34 1004.32 1000.83 998.74 997.97 997.27 997.25 995.91 995.31 995.33 994.48 993.16 992.02 991.15 990.51 990.14 990.72 990.72 990.73 991.05 990.96 991.24 991.57 991.63 991.94 992.39 993.29 993.85 994.19 993.73 994.63 995.64 996.14 996.60 996.99 997.32 998.16 999.66 1000.46 1001.08 1001.59
1007.62 1007.40 1006.72 1006.22 1003.84 1000.60 998.48 998.24 997.84 996.64 995.79 995.70 995.05 993.96 993.24 991.97 990.48 990.68 990.50 990.73 990.93 990.94 991.17 991.40 991.61 992.24 992.45 992.54 992.64 993.07 993.47 992.48 993.88 994.76 995.54 995.88 995.85 996.24 997.18 997.85 998.65 999.10 999.99 1000.65
1006.88 1005.60 1004.78 1003.95 1001.07 999.60 997.82 997.74 996.76 996.99 996.43 995.57 994.94 993.31 992.52 991.71 990.97 990.65 991.07 991.52 991.80 991.64 991.56 991.82 992.02 992.53 992.79 993.11 993.24 993.55 994.25 994.04 994.36 995.08 995.63 996.06 996.73 997.37 997.98 998.52 998.97 999.86 1000.20 1000.42
1005.96 1005.27 1004.32 1003.14 1000.27 999.14 998.38 997.65 996.99 996.69 995.61 995.40 994.49 992.75 991.18 991.15 991.31 991.07 991.51 992.06 992.58 992.46 992.31 992.77 992.62 993.29 993.51 993.48 993.49 993.84 993.88 993.83 994.14 994.75 995.23 995.60 996.29 997.19 998.03 998.84 999.46 1000.04 1000.41 1000.88
1005.68 1005.36 1003.74 1002.15 1000.09 999.28 997.81 997.43 996.68 995.72 994.97 995.07 993.99 992.37 991.35 990.80 991.75 991.68 991.89 992.51 993.06 993.18 993.12 993.35 993.54 994.05 994.39 994.23 993.98 993.84 993.78 993.89 994.45 995.03 995.57 996.10 996.86 998.12 999.17 999.95 1000.24 1000.45 1001.41 1000.81
1004.16 1003.46 1003.03 1000.52 999.56 998.72 997.65 996.79 996.23 994.53 995.21 995.01 993.79 992.41 992.63 991.62 991.78 992.19 992.44 992.88 993.23 993.43 993.68 993.99 994.55 994.85 995.16 995.14 994.97 994.88 994.64 994.55 995.05 995.59 996.18 997.00 997.60 998.24 998.85 999.54 1000.78 1000.65 1000.40 1000.35
Thickness
5762 5743 5747 5753 5761 5768 5765 5769 5774 5786 5803 5797 5788 5792 5801 5805 5803 5798 5798 5796 5793 5795 5802 5802 5801 5800 5798 5797 5794 5793 5790 5788 5783 5779 5775 5774 5775 5776 5776 5779 5780 5779 5777 5775
5748 5754 5761 5762 5762 5764 5764 5761 5766 5781 5798 5796 5792 5790 5801 5807 5809 5813 5808 5803 5803 5801 5798 5802 5804 5804 5802 5802 5802 5800 5799 5795 5791 5788 5785 5783 5781 5780 5782 5782 5782 5781 5780 5778
5765 5767 5768 5761 5756 5753 5755 5760 5765 5770 5786 5793 5785 5775 5786 5804 5807 5803 5806 5815 5808 5805 5805 5807 5807 5809 5809 5807 5808 5808 5806 5803 5798 5794 5789 5784 5783 5781 5779 5781 5783 5783 5782 5780
5757 5776 5770 5758 5758 5762 5736 5774 5776 5770 5759 5742 5782 5736 5772 5794 5798 5803 5804 5810 5815 5813 5814 5812 5812 5813 5816 5817 5815 5813 5808 5806 5803 5799 5793 5790 5788 5784 5786 5786 5788 5786 5784 5781
5771 5771 5766 5761 5775 5769 5765 5779 5772 5770 5754 5754 5759 5742 5769 5788 5785 5797 5807 5817 5822 5824 5823 5821 5820 5824 5826 5822 5821 5818 5813 5809 5808 5805 5803 5797 5793 5792 5791 5789 5788 5786 5785 5783
5773 5785 5777 5777 5777 5775 5776 5767 5751 5742 5735 5712 5750 5747 5754 5770 5801 5810 5812 5820 5828 5828 5830 5832 5834 5831 5827 5825 5822 5821 5817 5815 5814 5811 5808 5803 5798 5793 5790 5787 5787 5786 5784 5782
5764 5770 5784 5787 5764 5769 5761 5735 5696 5699 5698 5729 5759 5742 5787 5804 5824 5830 5824 5830 5838 5838 5834 5835 5836 5834 5832 5830 5829 5826 5822 5817 5817 5814 5811 5809 5804 5799 5795 5793 5791 5786 5783 5781
5738 5731 5771 5785 5779 5764 5754 5731 5692 5684 5695 5723 5739 5743 5781 5824 5835 5842 5846 5847 5843 5837 5841 5843 5846 5844 5842 5841 5838 5832 5827 5823 5821 5817 5812 5810 5807 5803 5800 5797 5795 5790 5787 5786
5729 5738 5783 5788 5789 5782 5743 5737 5756 5717 5719 5714 5732 5771 5805 5822 5825 5836 5844 5844 5844 5847 5847 5851 5854 5854 5851 5848 5846 5841 5835 5829 5824 5821 5816 5812 5810 5806 5802 5799 5798 5795 5792 5789
5747 5730 5766 5780 5779 5774 5764 5765 5727 5699 5702 5700 5726 5749 5770 5800 5819 5829 5833 5843 5856 5857 5855 5858 5859 5859 5859 5857 5856 5849 5844 5838 5834 5828 5823 5816 5812 5810 5807 5804 5799 5796 5793 5790
5715 5731 5747 5757 5754 5767 5750 5746 5738 5737 5711 5714 5708 5746 5795 5810 5831 5840 5850 5854 5862 5863 5866 5870 5871 5872 5867 5862 5856 5855 5849 5842 5837 5832 5827 5821 5816 5811 5808 5805 5804 5800 5795 5792
5693 5689 5713 5737 5768 5779 5777 5758 5736 5714 5720 5731 5724 5755 5819 5830 5841 5844 5853 5864 5868 5872 5874 5874 5876 5873 5866 5864 5862 5859 5854 5848 5845 5841 5833 5829 5823 5817 5811 5807 5804 5800 5798 5794
5672 5668 5684 5715 5739 5756 5745 5757 5761 5759 5735 5736 5728 5761 5822 5825 5831 5839 5840 5854 5862 5870 5872 5876 5875 5872 5870 5866 5865 5862 5859 5858 5852 5845 5839 5832 5828 5822 5816 5812 5808 5803 5800 5798
5650 5644 5661 5673 5691 5698 5707 5740 5750 5757 5741 5751 5759 5772 5805 5814 5818 5831 5837 5848 5856 5860 5868 5873 5874 5878 5878 5877 5871 5868 5865 5862 5855 5850 5844 5839 5835 5832 5827 5821 5815 5809 5806 5801
5622 5627 5644 5658 5674 5688 5702 5717 5731 5735 5755 5749 5769 5773 5789 5804 5815 5828 5840 5844 5847 5853 5860 5867 5875 5881 5880 5878 5878 5876 5871 5863 5858 5850 5847 5847 5842 5837 5832 5826 5821 5815 5811 5810
5588 5607 5619 5635 5665 5683 5689 5712 5727 5737 5742 5749 5769 5768 5804 5822 5824 5828 5835 5842 5844 5850 5860 5866 5872 5877 5878 5881 5880 5878 5875 5871 5866 5860 5859 5854 5846 5841 5837 5832 5826 5821 5818 5815
5566 5581 5598 5616 5642 5654 5682 5722 5732 5740 5750 5756 5756 5781 5805 5814 5817 5825 5832 5836 5841 5849 5858 5863 5867 5873 5880 5883 5887 5880 5880 5876 5870 5868 5866 5860 5854 5848 5845 5839 5833 5830 5825 5818
5548 5558 5574 5593 5622 5631 5695 5725 5738 5745 5759 5768 5772 5790 5803 5817 5831 5839 5842 5845 5845 5851 5854 5863 5871 5877 5883 5889 5885 5887 5879 5874 5873 5871 5866 5862 5858 5855 5848 5840 5837 5835 5830 5824
5545 5540 5560 5576 5597 5658 5676 5701 5707 5709 5738 5771 5772 5785 5800 5819 5828 5827 5841 5844 5851 5857 5863 5870 5881 5886 5887 5885 5887 5881 5875 5873 5869 5866 5865 5864 5862 5858 5851 5845 5845 5841 5831 5828
5535 5546 5551 5564 5586 5622 5671 5687 5708 5712 5708 5759 5768 5789 5800 5801 5787 5816 5844 5848 5851 5858 5862 5867 5872 5877 5878 5881 5882 5874 5872 5870 5868 5869 5874 5872 5867 5861 5854 5853 5849 5845 5838 5829
5507 5522 5535 5558 5570 5612 5655 5674 5697 5687 5730 5745 5749 5760 5785 5795 5819 5838 5848 5847 5853 5858 5860 5867 5868 5871 5876 5877 5878 5870 5868 5868 5882 5879 5873 5870 5868 5864 5863 5857 5845 5838 5833 5829
5500 5509 5521 5535 5551 5582 5654 5665 5675 5699 5717 5736 5748 5764 5776 5799 5818 5825 5832 5840 5843 5850 5853 5858 5858 5854 5858 5862 5865 5863 5862 5880 5870 5866 5862 5863 5865 5864 5856 5851 5843 5839 5826 5820
5501 5521 5533 5545 5574 5608 5640 5657 5681 5690 5706 5724 5742 5768 5782 5796 5807 5817 5819 5823 5829 5837 5843 5846 5848 5846 5849 5848 5850 5850 5848 5855 5854 5850 5850 5848 5845 5843 5840 5833 5830 5823 5816 5814
5500 5505 5517 5536 5585 5604 5619 5642 5674 5688 5709 5720 5739 5764 5789 5793 5799 5807 5810 5811 5813 5821 5827 5829 5835 5832 5834 5839 5842 5841 5844 5847 5846 5842 5840 5840 5835 5829 5823 5818 5815 5809 5804 5796
5492 5487 5510 5531 5572 5594 5617 5637 5671 5693 5711 5719 5738 5759 5778 5791 5788 5797 5800 5800 5801 5806 5812 5817 5819 5818 5818 5823 5827 5831 5835 5835 5830 5827 5824 5822 5816 5804 5796 5790 5789 5790 5778 5785
5497 5498 5500 5542 5572 5586 5612 5637 5666 5702 5706 5718 5735 5753 5757 5775 5779 5783 5787 5789 5793 5795 5798 5799 5800 5800 5802 5804 5807 5810 5814 5816 5812 5806 5803 5798 5794 5790 5786 5781 5773 5771 5771 5771